| time (UTC) | temp C | wind direction | speed KPH | gust KPH | rain 1hr cm | rain 24hr cm | rain mn cm | humidity % | barometer mb |
| 20260504192459 | 27 | 138 | 4.8 | 6.4 | 0.00 | 0.00 | 0.00 | 63 | 1011.3 |
| 20260504191959 | 27 | 138 | 4.8 | 11.3 | 0.00 | 0.00 | 0.00 | 65 | 1011.4 |
| 20260504191459 | 27 | 214 | 4.8 | 8.0 | 0.00 | 0.00 | 0.00 | 65 | 1011.3 |
| 20260504190959 | 27 | 146 | 4.8 | 8.0 | 0.00 | 0.00 | 0.00 | 65 | 1011.3 |
| 20260504190459 | 27 | 146 | 4.8 | 9.7 | 0.00 | 0.00 | 0.00 | 67 | 1011.5 |
| 20260504185959 | 27 | 147 | 4.8 | 12.9 | 0.00 | 0.00 | 0.00 | 65 | 1011.5 |
| 20260504185459 | 27 | 149 | 4.8 | 8.0 | 0.00 | 0.00 | 0.00 | 65 | 1011.5 |
| 20260504184959 | 27 | 147 | 6.4 | 12.9 | 0.00 | 0.00 | 0.00 | 63 | 1011.6 |
| 20260504184459 | 27 | 148 | 4.8 | 14.5 | 0.00 | 0.00 | 0.00 | 66 | 1011.5 |
| 20260504183959 | 27 | 149 | 4.8 | 9.7 | 0.00 | 0.00 | 0.00 | 65 | 1011.5 |
| 20260504183459 | 27 | 148 | 4.8 | 12.9 | 0.00 | 0.00 | 0.00 | 64 | 1011.6 |
| 20260504182959 | 27 | 148 | 6.4 | 11.3 | 0.00 | 0.00 | 0.00 | 65 | 1011.6 |
| 20260504182459 | 27 | 167 | 4.8 | 12.9 | 0.00 | 0.00 | 0.00 | 66 | 1011.8 |
| 20260504181959 | 27 | 174 | 4.8 | 14.5 | 0.00 | 0.00 | 0.00 | 67 | 1011.8 |
| 20260504181459 | 27 | 189 | 3.2 | 6.4 | 0.00 | 0.00 | 0.00 | 68 | 1012.0 |
| 20260504180959 | 27 | 189 | 4.8 | 11.3 | 0.00 | 0.00 | 0.00 | 65 | 1012.0 |
| 20260504180459 | 27 | 140 | 6.4 | 12.9 | 0.00 | 0.00 | 0.00 | 66 | 1012.1 |
| 20260504175959 | 27 | 171 | 6.4 | 9.7 | 0.00 | 0.00 | 0.00 | 66 | 1012.1 |
| 20260504175500 | 27 | 173 | 4.8 | 11.3 | 0.00 | 0.00 | 0.00 | 65 | 1012.2 |
| 20260504175000 | 27 | 162 | 4.8 | 12.9 | 0.00 | 0.00 | 0.00 | 66 | 1012.2 |
| 20260504174500 | 27 | 166 | 4.8 | 9.7 | 0.00 | 0.00 | 0.00 | 66 | 1012.3 |
| 20260504174000 | 26 | 167 | 4.8 | 11.3 | 0.00 | 0.00 | 0.00 | 67 | 1012.2 |
| 20260504173500 | 27 | 184 | 4.8 | 12.9 | 0.00 | 0.00 | 0.00 | 64 | 1012.5 |
| 20260504173000 | 27 | 209 | 3.2 | 6.4 | 0.00 | 0.00 | 0.00 | 64 | 1012.7 |
| 20260504172500 | 27 | 207 | 4.8 | 8.0 | 0.00 | 0.00 | 0.00 | 66 | 1012.6 |
| 20260504172000 | 27 | 148 | 4.8 | 12.9 | 0.00 | 0.00 | 0.00 | 66 | 1012.7 |
| 20260504171500 | 27 | 148 | 4.8 | 9.7 | 0.00 | 0.00 | 0.00 | 64 | 1012.7 |
| 20260504171000 | 26 | 148 | 4.8 | 16.1 | 0.00 | 0.00 | 0.00 | 65 | 1012.8 |
| 20260504170500 | 27 | 149 | 4.8 | 8.0 | 0.00 | 0.00 | 0.00 | 67 | 1012.7 |
| 20260504151000 | 24 | 213 | 3.2 | 9.7 | 0.00 | 0.00 | 0.00 | 71 | 1013.4 |
| 20260504150500 | 24 | 161 | 4.8 | 9.7 | 0.00 | 0.00 | 0.00 | 72 | 1013.5 |
| 20260504141000 | 19 | 198 | 0.0 | 0.0 | 0.00 | 0.00 | 0.00 | 95 | 1013.4 |
| 20260504140500 | 18 | 198 | 0.0 | 0.0 | 0.00 | 0.00 | 0.00 | 96 | 1013.4 |
| 20260504130500 | 15 | 202 | 0.0 | 0.0 | 0.00 | 0.00 | 0.00 | 95 | 1013.6 |
| 20260504110500 | 13 | 202 | 0.0 | 0.0 | 0.00 | 0.00 | 0.00 | 89 | 1013.3 |
| 20260504100500 | 13 | 202 | 0.0 | 0.0 | 0.00 | 0.00 | 0.00 | 89 | 1013.1 |
| 20260504082000 | 14 | 202 | 0.0 | 0.0 | 0.00 | 0.00 | 0.00 | 87 | 1014.2 |
| 20260504081501 | 14 | 202 | 0.0 | 0.0 | 0.00 | 0.00 | 0.00 | 86 | 1013.9 |
| 20260504081000 | 14 | 202 | 0.0 | 0.0 | 0.00 | 0.00 | 0.00 | 86 | 1014.0 |
| 20260504080501 | 14 | 202 | 0.0 | 0.0 | 0.00 | 0.00 | 0.00 | 86 | 1014.2 |
| 20260504050501 | 15 | 202 | 0.0 | 0.0 | 0.00 | 0.00 | 0.00 | 82 | 1015.9 |
| 20260504050001 | 15 | 202 | 0.0 | 0.0 | 0.00 | 0.00 | 0.00 | 81 | 1015.9 |
| 20260504045501 | 15 | 202 | 0.0 | 0.0 | 0.00 | 0.00 | 0.00 | 81 | 1016.0 |
| 20260504045001 | 15 | 202 | 0.0 | 0.0 | 0.00 | 0.00 | 0.00 | 82 | 1016.0 |
| 20260504044501 | 15 | 202 | 0.0 | 0.0 | 0.00 | 0.00 | 0.00 | 81 | 1016.1 |
| 20260504044001 | 15 | 202 | 0.0 | 0.0 | 0.00 | 0.00 | 0.00 | 80 | 1016.1 |
| 20260504043501 | 15 | 202 | 0.0 | 0.0 | 0.00 | 0.00 | 0.00 | 80 | 1016.0 |
| 20260504043001 | 15 | 202 | 0.0 | 0.0 | 0.00 | 0.00 | 0.00 | 79 | 1016.1 |
| 20260504042501 | 15 | 202 | 0.0 | 0.0 | 0.00 | 0.00 | 0.00 | 79 | 1016.1 |
| 20260504042001 | 15 | 202 | 0.0 | 0.0 | 0.00 | 0.00 | 0.00 | 78 | 1015.9 |
| 20260504041501 | 15 | 202 | 0.0 | 0.0 | 0.00 | 0.00 | 0.00 | 79 | 1015.9 |
| 20260504041001 | 15 | 202 | 0.0 | 0.0 | 0.00 | 0.00 | 0.00 | 80 | 1015.9 |
| 20260504040501 | 15 | 202 | 0.0 | 0.0 | 0.00 | 0.00 | 0.00 | 80 | 1015.8 |
| 20260504040001 | 15 | 202 | 0.0 | 0.0 | 0.00 | 0.00 | 0.00 | 80 | 1015.9 |
| 20260504035501 | 16 | 202 | 0.0 | 0.0 | 0.00 | 0.00 | 0.00 | 79 | 1016.0 |
| 20260504035001 | 16 | 202 | 0.0 | 0.0 | 0.00 | 0.00 | 0.00 | 79 | 1016.0 |
| 20260504034501 | 16 | 202 | 0.0 | 0.0 | 0.00 | 0.00 | 0.00 | 78 | 1016.0 |
| 20260504034001 | 16 | 202 | 0.0 | 0.0 | 0.00 | 0.00 | 0.00 | 77 | 1016.1 |
| 20260504033501 | 16 | 202 | 0.0 | 0.0 | 0.00 | 0.00 | 0.00 | 77 | 1016.1 |
| 20260504033001 | 16 | 202 | 0.0 | 0.0 | 0.00 | 0.00 | 0.00 | 77 | 1016.1 |
| 20260504032501 | 16 | 202 | 0.0 | 0.0 | 0.00 | 0.00 | 0.00 | 76 | 1016.0 |
| 20260504032001 | 16 | 202 | 0.0 | 0.0 | 0.00 | 0.00 | 0.00 | 77 | 1016.2 |
| 20260504031501 | 16 | 202 | 0.0 | 0.0 | 0.00 | 0.00 | 0.00 | 76 | 1016.0 |
| 20260504031001 | 16 | 202 | 0.0 | 0.0 | 0.00 | 0.00 | 0.00 | 76 | 1016.0 |
| 20260504030501 | 16 | 202 | 0.0 | 0.0 | 0.00 | 0.00 | 0.00 | 76 | 1016.0 |
| 20260504030001 | 17 | 202 | 0.0 | 0.0 | 0.00 | 0.00 | 0.00 | 75 | 1015.9 |
| 20260504025501 | 17 | 202 | 0.0 | 0.0 | 0.00 | 0.00 | 0.00 | 74 | 1016.0 |
| 20260504025001 | 17 | 202 | 0.0 | 0.0 | 0.00 | 0.00 | 0.00 | 74 | 1015.9 |
| 20260504024502 | 17 | 202 | 0.0 | 0.0 | 0.00 | 0.00 | 0.00 | 74 | 1016.0 |
| 20260504024001 | 17 | 202 | 0.0 | 0.0 | 0.00 | 0.00 | 0.00 | 73 | 1015.9 |
| 20260504023501 | 17 | 202 | 0.0 | 0.0 | 0.00 | 0.00 | 0.00 | 73 | 1015.9 |
| 20260504023001 | 17 | 202 | 0.0 | 0.0 | 0.00 | 0.00 | 0.00 | 73 | 1015.9 |
| 20260504022501 | 17 | 202 | 0.0 | 0.0 | 0.00 | 0.00 | 0.00 | 73 | 1015.9 |
| 20260504022001 | 17 | 202 | 0.0 | 0.0 | 0.00 | 0.00 | 0.00 | 73 | 1015.9 |
| 20260504021501 | 17 | 202 | 0.0 | 0.0 | 0.00 | 0.00 | 0.00 | 74 | 1015.9 |
| 20260504021001 | 17 | 202 | 0.0 | 0.0 | 0.00 | 0.00 | 0.00 | 74 | 1015.9 |
| 20260504020501 | 18 | 202 | 0.0 | 0.0 | 0.00 | 0.00 | 0.00 | 74 | 1015.9 |
| 20260504020001 | 18 | 202 | 0.0 | 0.0 | 0.00 | 0.00 | 0.00 | 74 | 1015.9 |
| 20260504015501 | 18 | 202 | 0.0 | 0.0 | 0.00 | 0.00 | 0.00 | 73 | 1016.0 |
| 20260504015001 | 18 | 202 | 0.0 | 0.0 | 0.00 | 0.00 | 0.00 | 73 | 1015.9 |
| 20260504014501 | 18 | 202 | 0.0 | 0.0 | 0.00 | 0.00 | 0.00 | 72 | 1015.9 |
| 20260504014001 | 18 | 202 | 0.0 | 0.0 | 0.00 | 0.00 | 0.00 | 71 | 1015.9 |
| 20260504013501 | 18 | 202 | 0.0 | 0.0 | 0.00 | 0.00 | 0.00 | 71 | 1016.0 |
| 20260504013001 | 19 | 202 | 0.0 | 0.0 | 0.00 | 0.00 | 0.00 | 71 | 1016.0 |
| 20260504012501 | 19 | 202 | 0.0 | 0.0 | 0.00 | 0.00 | 0.00 | 71 | 1016.0 |
| 20260504012001 | 19 | 202 | 0.0 | 0.0 | 0.00 | 0.00 | 0.00 | 70 | 1015.7 |
| 20260504011501 | 20 | 202 | 0.0 | 0.0 | 0.00 | 0.00 | 0.00 | 69 | 1015.7 |
| 20260504011001 | 20 | 202 | 0.0 | 0.0 | 0.00 | 0.00 | 0.00 | 68 | 1015.7 |
| 20260504010501 | 20 | 202 | 0.0 | 0.0 | 0.00 | 0.00 | 0.00 | 67 | 1015.9 |
| 20260504010001 | 20 | 202 | 0.0 | 0.0 | 0.00 | 0.00 | 0.00 | 67 | 1015.9 |
| 20260504005501 | 20 | 202 | 0.0 | 0.0 | 0.00 | 0.00 | 0.00 | 66 | 1015.9 |
| 20260504005001 | 20 | 202 | 0.0 | 0.0 | 0.00 | 0.00 | 0.00 | 65 | 1015.8 |
| 20260504004501 | 21 | 202 | 0.0 | 0.0 | 0.00 | 0.00 | 0.00 | 63 | 1015.8 |
| 20260504004001 | 21 | 202 | 0.0 | 0.0 | 0.00 | 0.00 | 0.00 | 62 | 1015.8 |
| 20260504003501 | 21 | 202 | 0.0 | 0.0 | 0.00 | 0.00 | 0.00 | 60 | 1015.8 |
| 20260504003001 | 21 | 202 | 1.6 | 3.2 | 0.00 | 0.00 | 0.00 | 60 | 1015.6 |
| 20260504002501 | 22 | 202 | 1.6 | 3.2 | 0.00 | 0.00 | 0.00 | 58 | 1015.7 |
| 20260504002001 | 22 | 202 | 3.2 | 4.8 | 0.00 | 0.00 | 0.00 | 57 | 1015.6 |
| 20260504001501 | 22 | 202 | 1.6 | 4.8 | 0.00 | 0.00 | 0.00 | 56 | 1015.7 |
| 20260504001001 | 22 | 202 | 1.6 | 3.2 | 0.00 | 0.00 | 0.00 | 56 | 1015.7 |
| 20260504000501 | 22 | 202 | 3.2 | 4.8 | 0.00 | 0.00 | 0.00 | 55 | 1015.8 |
| 20260504000001 | 22 | 202 | 3.2 | 4.8 | 0.00 | 0.00 | 0.00 | 53 | 1015.8 |
| 20260503235501 | 23 | 202 | 3.2 | 6.4 | 0.00 | 0.00 | 0.00 | 53 | 1015.7 |
| 20260503235001 | 23 | 202 | 3.2 | 6.4 | 0.00 | 0.00 | 0.00 | 52 | 1015.8 |
| 20260503234501 | 23 | 202 | 1.6 | 6.4 | 0.00 | 0.00 | 0.00 | 52 | 1015.9 |
| 20260503234001 | 23 | 203 | 3.2 | 4.8 | 0.00 | 0.00 | 0.00 | 52 | 1016.0 |
| 20260503233501 | 23 | 203 | 3.2 | 6.4 | 0.00 | 0.00 | 0.00 | 52 | 1016.1 |
| 20260503233001 | 23 | 203 | 3.2 | 6.4 | 0.00 | 0.00 | 0.00 | 51 | 1016.0 |
| 20260503232501 | 23 | 204 | 4.8 | 6.4 | 0.00 | 0.00 | 0.00 | 50 | 1016.0 |
| 20260503232001 | 23 | 205 | 3.2 | 6.4 | 0.00 | 0.00 | 0.00 | 50 | 1016.0 |
| 20260503231501 | 23 | 205 | 3.2 | 6.4 | 0.00 | 0.00 | 0.00 | 50 | 1016.1 |
| 20260503231001 | 23 | 205 | 3.2 | 6.4 | 0.00 | 0.00 | 0.00 | 49 | 1016.2 |
| 20260503230501 | 24 | 205 | 3.2 | 8.0 | 0.00 | 0.00 | 0.00 | 49 | 1016.2 |
| 20260503230001 | 24 | 206 | 3.2 | 8.0 | 0.00 | 0.00 | 0.00 | 50 | 1016.3 |
| 20260503225501 | 24 | 121 | 3.2 | 8.0 | 0.00 | 0.00 | 0.00 | 51 | 1016.3 |
| 20260503225001 | 25 | 117 | 3.2 | 9.7 | 0.00 | 0.00 | 0.00 | 49 | 1016.2 |
| 20260503224501 | 25 | 116 | 3.2 | 9.7 | 0.00 | 0.00 | 0.00 | 49 | 1016.5 |
| 20260503224001 | 25 | 115 | 3.2 | 6.4 | 0.00 | 0.00 | 0.00 | 51 | 1016.5 |
| 20260503223501 | 25 | 115 | 3.2 | 4.8 | 0.00 | 0.00 | 0.00 | 51 | 1016.5 |
| 20260503223002 | 25 | 115 | 3.2 | 11.3 | 0.00 | 0.00 | 0.00 | 48 | 1016.6 |
| 20260503222501 | 25 | 115 | 3.2 | 4.8 | 0.00 | 0.00 | 0.00 | 47 | 1016.6 |
| 20260503222001 | 25 | 115 | 3.2 | 6.4 | 0.00 | 0.00 | 0.00 | 46 | 1016.5 |
| 20260503221502 | 25 | 115 | 3.2 | 6.4 | 0.00 | 0.00 | 0.00 | 47 | 1016.6 |
| 20260503221002 | 25 | 115 | 3.2 | 4.8 | 0.00 | 0.00 | 0.00 | 48 | 1016.6 |
| 20260503220502 | 25 | 115 | 3.2 | 6.4 | 0.00 | 0.00 | 0.00 | 47 | 1016.5 |
| 20260503220002 | 26 | 115 | 3.2 | 6.4 | 0.00 | 0.00 | 0.00 | 46 | 1016.5 |
| 20260503215502 | 26 | 115 | 3.2 | 6.4 | 0.00 | 0.00 | 0.00 | 47 | 1016.6 |
| 20260503215002 | 26 | 115 | 3.2 | 6.4 | 0.00 | 0.00 | 0.00 | 48 | 1016.7 |
| 20260503214502 | 26 | 114 | 3.2 | 11.3 | 0.00 | 0.00 | 0.00 | 46 | 1016.7 |
| 20260503214002 | 26 | 114 | 3.2 | 6.4 | 0.00 | 0.00 | 0.00 | 45 | 1016.7 |
| 20260503213502 | 27 | 114 | 3.2 | 6.4 | 0.00 | 0.00 | 0.00 | 45 | 1016.7 |
| 20260503213002 | 27 | 107 | 1.6 | 6.4 | 0.00 | 0.00 | 0.00 | 45 | 1016.9 |
| 20260503212502 | 27 | 105 | 3.2 | 9.7 | 0.00 | 0.00 | 0.00 | 44 | 1016.9 |
| 20260503212002 | 27 | 167 | 4.8 | 8.0 | 0.00 | 0.00 | 0.00 | 45 | 1017.1 |
| 20260503211502 | 27 | 167 | 3.2 | 8.0 | 0.00 | 0.00 | 0.00 | 42 | 1017.1 |
| 20260503211002 | 27 | 167 | 3.2 | 8.0 | 0.00 | 0.00 | 0.00 | 45 | 1017.1 |
| 20260503210502 | 27 | 80 | 3.2 | 4.8 | 0.00 | 0.00 | 0.00 | 42 | 1017.1 |
| 20260503210002 | 28 | 82 | 3.2 | 6.4 | 0.00 | 0.00 | 0.00 | 43 | 1017.3 |
| 20260503205502 | 28 | 82 | 3.2 | 6.4 | 0.00 | 0.00 | 0.00 | 44 | 1017.3 |
| 20260503205002 | 28 | 80 | 4.8 | 9.7 | 0.00 | 0.00 | 0.00 | 40 | 1017.2 |
| 20260503204502 | 28 | 107 | 3.2 | 11.3 | 0.00 | 0.00 | 0.00 | 39 | 1017.3 |
| 20260503204002 | 28 | 111 | 3.2 | 9.7 | 0.00 | 0.00 | 0.00 | 41 | 1017.4 |
| 20260503203502 | 28 | 111 | 3.2 | 6.4 | 0.00 | 0.00 | 0.00 | 42 | 1017.6 |
| 20260503203002 | 28 | 111 | 3.2 | 12.9 | 0.00 | 0.00 | 0.00 | 41 | 1017.7 |
| 20260503202502 | 28 | 44 | 0.0 | 8.0 | 0.00 | 0.00 | 0.00 | 43 | 1017.7 |
| 20260503202002 | 28 | 43 | 0.0 | 0.0 | 0.00 | 0.00 | 0.00 | 44 | 1017.8 |
| 20260503201502 | 28 | 42 | 1.6 | 4.8 | 0.00 | 0.00 | 0.00 | 39 | 1017.9 |
| 20260503201002 | 28 | 44 | 1.6 | 6.4 | 0.00 | 0.00 | 0.00 | 36 | 1017.9 |
| 20260503200502 | 28 | 58 | 1.6 | 4.8 | 0.00 | 0.00 | 0.00 | 41 | 1018.0 |
| 20260503200002 | 28 | 53 | 3.2 | 11.3 | 0.00 | 0.00 | 0.00 | 42 | 1018.0 |
| 20260503195502 | 28 | 36 | 3.2 | 8.0 | 0.00 | 0.00 | 0.00 | 37 | 1018.1 |
| 20260503195002 | 28 | 30 | 1.6 | 6.4 | 0.00 | 0.00 | 0.00 | 40 | 1018.0 |
| 20260503194502 | 28 | 28 | 1.6 | 6.4 | 0.00 | 0.00 | 0.00 | 41 | 1018.1 |
| 20260503194002 | 28 | 28 | 1.6 | 6.4 | 0.00 | 0.00 | 0.00 | 44 | 1018.1 |
| 20260503193502 | 28 | 28 | 1.6 | 4.8 | 0.00 | 0.00 | 0.00 | 41 | 1018.3 |
| 20260503193002 | 28 | 28 | 3.2 | 4.8 | 0.00 | 0.00 | 0.00 | 44 | 1018.5 |